Location: Владивосток
(43.1151°N, 131.8856°E)
Time: 17:57:51
(UTC+10:00)

SPROUT - Pass Details

Date: 09 July 2022
Orbit: 588 x 598 km, 97.9° (Epoch: 17 August)

Event Time Altitude Azimuth Distance (km) Brightness Sun altitude
Exits shadow 01:55:26 74° 83° (E) 617 ? -23.9°
Maximum altitude 01:55:29 74° 76° (ENE) 617 ? -23.9°
Drops below altitude 10° 01:59:39 10° 351° (N) 1,928 ? -23.8°
Sets 02:01:50 0° 349° (N) 2,836 ? -23.7°
